Location: Newark
(44.3248°N, 23.7839°E)
Time: 23:18:50
(UTC+00:00)

BlueWalker 3 - Visible Passes

Search period start: 06 December 2022 00:00
Search period end: 16 December 2022 00:00
Orbit: 501 x 518 km, 53.2° (Epoch: 06 December)

Date Brightness Start Highest point End Pass type
(mag) Time Alt. Az. Time Alt. Az. Time Alt. Az.
06 Dec 2.8 16:27:56 10° NW 16:31:31 33° NNE 16:31:40 33° NNE visible
07 Dec 2.7 16:09:31 10° NW 16:13:08 35° NNE 16:14:16 28° ENE visible
07 Dec 4.7 17:48:09 10° WNW 17:49:07 17° WNW 17:49:07 17° WNW visible
08 Dec 2.7 15:51:07 10° NW 15:54:45 36° NNE 15:56:59 19° ENE visible
08 Dec 3.9 17:29:45 10° WNW 17:31:50 28° WNW 17:31:50 28° WNW visible
09 Dec 2.6 15:32:41 10° NW 15:36:22 37° NNE 15:39:53 11° E visible
09 Dec 2.9 17:11:21 10° WNW 17:14:45 45° WSW 17:14:45 45° WSW visible
10 Dec 2.6 15:14:16 10° NW 15:17:58 38° NNE 15:21:38 10° E visible
10 Dec 2.9 16:52:57 10° WNW 16:56:41 44° SW 16:57:54 33° S visible
11 Dec 3.1 16:34:33 10° WNW 16:38:15 41° SW 16:41:24 13° SSE visible
12 Dec 3.4 16:16:09 10° WNW 16:19:48 39° SW 16:23:26 10° SSE visible
13 Dec 3.6 15:57:45 10° WNW 16:01:22 36° SW 16:04:56 10° SSE visible
14 Dec 3.8 15:39:21 10° WNW 15:42:54 34° SW 15:46:26 10° SSE visible
15 Dec 4.0 15:20:56 10° WNW 15:24:27 32° SW 15:27:55 10° SSE visible
